Location: Batang Balui
(2.7000°N, 113.7833°E)
Time: 23:32:50
(UTC+00:00)

Delta 2 Rocket - Pass Details

Date: 03 December 2021
Orbit: 414 x 796 km, 35.6° (Epoch: 27 January)

Event Time Altitude Azimuth Distance (km) Brightness Sun altitude
Rises 11:13:33 0° 244° (WSW) 2,927 9.0 -14.6°
Reaches altitude 10° 11:16:09 10° 251° (WSW) 1,945 7.5 -15.2°
Maximum altitude 11:20:22 40° 321° (NW) 814 4.3 -16.2°
Enters shadow 11:22:30 22° 19° (NNE) 1,179 4.6 -16.7°
